[[{"header":{"parameterUnit":"m.s-1","parameterCategory":1,"la1":30.2991,"la2":30.254,"lo1":-89.0895,"lo2":-89.0444,"dy":0.0017,"dx":0.0017,"nx":28,"ny":28,"refTime":"2025-04-20T03:00:00:Z","depth":0,"parameterNumber":2,"parameterNumberName":"U-component_of_WINDS"},"data":[0,0,0,0,0,0,0,0,0,0,0,0,0,0,0,0,0,0,0,0,0,0,0,0,0,0,0,0,0,0,0,0,0,0,0,0,0,0,0,0,0,0,0,0,0,0,0,0,0,0,0,0,0,0,0,0,0,0,-1.6811,-1.6813,0,-1.6956,-1.6958,-1.696,-1.703,-1.703,-1.703,-1.703,-1.7179,-1.7183,-1.7187,0,0,0,0,0,0,0,0,0,0,0,0,0,-1.6594,-1.6598,-1.6811,-1.6813,-1.6815,-1.6956,-1.6958,-1.696,-1.703,-1.703,-1.703,-1.703,-1.7178,-1.7182,-1.7187,0,0,0,0,0,0,0,0,0,0,0,0,0,-1.6709,-1.6599,-1.6811,-1.6867,-1.6873,-1.6956,-1.6958,-1.6961,-1.703,-1.703,-1.703,-1.703,-1.7176,-1.7182,-1.7188,-1.7225,0,0,-1.7206,-1.7209,0,0,0,0,0,0,0,0,-1.6702,-1.6717,-1.6857,-1.6863,-1.687,-1.6975,-1.6936,-1.7049,-1.703,-1.6971,-1.703,-1.703,-1.7111,-1.7122,-1.715,-1.7232,-1.7239,-1.7206,-1.721,-1.7213,-1.7214,0,0,0,0,0,0,0,-1.6694,-1.6711,-1.6869,-1.6859,-1.6867,-1.6884,-1.6901,-1.6958,-1.7039,-1.6976,-1.6981,-1.6997,-1.7115,-1.7144,-1.7154,-1.7241,-1.7206,-1.7212,-1.7215,-1.7218,-1.7362,-1.7362,0,0,0,0,0,0,-1.6677,-1.6704,-1.6864,-1.6873,-1.6784,-1.6888,-1.6907,-1.6942,-1.7039,-1.7054,-1.6997,-1.7,-1.7134,-1.7147,-1.7159,-1.721,-1.7213,-1.7218,-1.7222,-1.7362,-1.7362,-1.7363,0,0,0,0,0,0,-1.6672,-1.6691,-1.6858,-1.679,-1.6812,-1.6892,-1.6931,-1.6944,-1.6974,-1.7055,-1.707,-1.7012,-1.7134,-1.7151,-1.7209,-1.7216,-1.7221,-1.7226,-1.7362,-1.7362,-1.7362,-1.7312,0,0,0,0,0,0,-1.6666,-1.6688,-1.6704,-1.679,-1.6816,-1.6905,-1.6931,-1.6947,-1.6984,-1.6989,-1.7073,-1.7087,-1.7135,-1.7199,-1.7214,-1.7225,-1.7231,-1.7361,-1.7362,-1.7362,-1.7314,-1.7311,-1.7309,0,0,0,0,0,-1.6658,-1.6684,-1.6704,-1.6723,-1.6837,-1.6905,-1.692,-1.6976,-1.6984,-1.7,-1.7052,-1.7084,-1.7213,-1.7205,-1.7222,-1.7234,-1.7361,-1.7362,-1.7362,-1.7315,-1.7311,-1.7309,0,0,0,0,0,0,-1.6597,-1.6696,-1.672,-1.6775,-1.6831,-1.6917,-1.6939,-1.697,-1.7025,-1.7028,-1.7094,-1.7112,-1.7164,-1.7205,-1.7194,-1.7276,-1.729,-1.7294,-1.7248,-1.7245,-1.7243,-1.7232,-1.7236,0,0,0,0,0,-1.659,-1.6637,-1.6721,-1.6762,-1.6789,-1.6859,-1.6891,-1.6928,-1.6989,-1.7013,-1.707,-1.7128,-1.7182,-1.7216,-1.727,-1.732,-1.7339,-1.7337,-1.7334,-1.7332,-1.7335,-1.7364,-1.7364,-1.7364,-1.7364,-1.7364,0,0,-1.6576,-1.6636,-1.6662,-1.6751,-1.6799,-1.6847,-1.6878,-1.6927,-1.6963,-1.7021,-1.7079,-1.7122,-1.7192,-1.7246,-1.7272,-1.7281,-1.7339,-1.7332,-1.733,-1.7334,-1.7365,-1.7365,-1.7365,-1.7365,-1.7365,-1.7365,0,0,-1.6575,-1.6625,-1.6664,-1.6712,-1.6784,-1.683,-1.6839,-1.6921,-1.6952,-1.7011,-1.7055,-1.7099,-1.719,-1.7237,-1.7273,-1.729,-1.7321,-1.7305,-1.7292,-1.7321,-1.7321,-1.7321,-1.7327,-1.7329,-1.7308,-1.7308,-1.7308,0,-1.6549,-1.6622,-1.668,-1.6727,-1.6765,-1.6819,-1.6859,-1.6902,-1.6988,-1.7013,-1.7022,-1.7137,-1.7187,-1.7253,-1.7257,-1.7284,-1.7297,-1.7296,-1.7316,-1.7317,-1.7318,-1.7325,-1.7327,-1.7305,-1.7306,-1.7306,-1.7306,0,-1.6586,-1.6637,-1.666,-1.6741,-1.6782,-1.6824,-1.6889,-1.6923,-1.6957,-1.7002,-1.7061,-1.7124,-1.7191,-1.7209,-1.7243,-1.728,-1.7284,-1.7303,-1.7318,-1.7315,-1.7322,-1.7325,-1.7302,-1.7303,-1.7303,-1.7304,0,0,-1.6552,-1.6665,-1.6672,-1.671,-1.6794,-1.6834,-1.6879,-1.6945,-1.6972,-1.703,-1.707,-1.7145,-1.7164,-1.7204,-1.7244,-1.7268,-1.7278,-1.7285,-1.7288,-1.7282,-1.7323,-1.7308,-1.731,-1.7299,-1.7299,-1.73,-1.7317,0,-1.6563,-1.6647,-1.67,-1.6763,-1.681,-1.6862,-1.6901,-1.6957,-1.7,-1.7046,-1.7094,-1.7147,-1.7167,-1.7192,-1.7219,-1.7271,-1.7287,-1.727,-1.7337,-1.7338,-1.7318,-1.7314,-1.7299,-1.7312,-1.7321,-1.7321,-1.7322,0,-1.6588,-1.6644,-1.6711,-1.6789,-1.6811,-1.6845,-1.691,-1.6953,-1.7017,-1.7047,-1.7092,-1.7132,-1.7182,-1.7192,-1.7262,-1.7249,-1.728,-1.7309,-1.7311,-1.732,-1.733,-1.7323,-1.7318,-1.732,-1.7327,-1.7326,-1.7326,0,-1.6557,-1.6648,-1.6701,-1.6731,-1.6823,-1.6846,-1.6886,-1.695,-1.6986,-1.7042,-1.7066,-1.7127,-1.7161,-1.7208,-1.7263,-1.7265,-1.7327,-1.7342,-1.7354,-1.7353,-1.7365,-1.7364,-1.7365,-1.7383,-1.7383,-1.7383,-1.7383,0,-1.6564,-1.6603,-1.6688,-1.672,-1.6765,-1.6826,-1.6869,-1.6913,-1.6969,-1.701,-1.7059,-1.7096,-1.7167,-1.7214,-1.7257,-1.7309,-1.7323,-1.7349,-1.736,-1.7345,-1.7342,-1.7366,-1.7367,-1.7384,-1.7384,-1.7384,-1.7384,0,-1.6537,-1.6595,-1.6655,-1.6738,-1.6759,-1.6789,-1.6859,-1.6893,-1.6938,-1.699,-1.7006,-1.7077,-1.7135,-1.7194,-1.7272,-1.7301,-1.7352,-1.7367,-1.733,-1.7336,-1.7345,-1.7343,-1.7362,-1.7368,-1.7381,-1.7381,-1.7381,0,-1.6538,-1.6569,-1.6654,-1.6686,-1.6724,-1.6774,-1.6811,-1.6871,-1.6908,-1.6983,-1.7007,-1.7068,-1.712,-1.7209,-1.7268,-1.7328,-1.7345,-1.7348,-1.7355,-1.7339,-1.7346,-1.7344,-1.7347,-1.7345,-1.7345,-1.7345,-1.7344,0,-1.6534,-1.6561,-1.6612,-1.6674,-1.6716,-1.6768,-1.6821,-1.6844,-1.6915,-1.6953,-1.7013,-1.7053,-1.7132,-1.7192,-1.7259,-1.73,-1.7334,-1.7342,-1.7348,-1.7333,-1.731,-1.7323,-1.7324,-1.7341,-1.7341,-1.7342,-1.7342,-1.7342,-1.6521,-1.6552,-1.6616,-1.6672,-1.6718,-1.6767,-1.6802,-1.6851,-1.6902,-1.6971,-1.7004,-1.7063,-1.7126,-1.7219,-1.7259,-1.7307,-1.7317,-1.7325,-1.7328,-1.7329,-1.7325,-1.7302,-1.7319,-1.7319,-1.732,-1.732,-1.732,0,-1.652,-1.6564,-1.6614,-1.6687,-1.6731,-1.6758,-1.6819,-1.6854,-1.6905,-1.6961,-1.7011,-1.7079,-1.7137,-1.7201,-1.7263,-1.7289,-1.7306,-1.7303,-1.7302,-1.7311,-1.7313,-1.7302,-1.7288,-1.7288,-1.7288,-1.7288,-1.7288,-1.7288,-1.6524,-1.6577,-1.6612,-1.6688,-1.6732,-1.679,-1.6822,-1.6867,-1.6912,-1.6986,-1.7034,-1.7075,-1.7134,-1.7201,-1.7256,-1.7273,-1.7294,-1.7287,-1.7309,-1.7309,-1.7311,-1.7314,-1.7303,-1.7291,-1.7291,-1.7304,-1.7304,-1.7304]},{"header":{"parameterUnit":"m.s-1","parameterCategory":1,"la1":30.2991,"la2":30.254,"lo1":-89.0895,"lo2":-89.0444,"dy":0.0017,"dx":0.0017,"nx":28,"ny":28,"refTime":"2025-04-20T03:00:00:Z","depth":0,"parameterNumber":3,"parameterNumberName":"V-component_of_WINDS"},"data":[0,0,0,0,0,0,0,0,0,0,0,0,0,0,0,0,0,0,0,0,0,0,0,0,0,0,0,0,0,0,0,0,0,0,0,0,0,0,0,0,0,0,0,0,0,0,0,0,0,0,0,0,0,0,0,0,0,0,2.5661,2.5663,0,2.5822,2.5824,2.5826,2.5866,2.5865,2.5864,2.5863,2.603,2.6035,2.6041,0,0,0,0,0,0,0,0,0,0,0,0,0,2.5391,2.5396,2.5661,2.5663,2.5665,2.5822,2.5824,2.5826,2.5867,2.5865,2.5864,2.5863,2.6028,2.6035,2.6041,0,0,0,0,0,0,0,0,0,0,0,0,0,2.5526,2.5398,2.566,2.5704,2.5709,2.5821,2.5824,2.5827,2.5867,2.5865,2.5864,2.5862,2.6026,2.6034,2.6042,2.6123,0,0,2.6067,2.6071,0,0,0,0,0,0,0,0,2.5518,2.5536,2.5695,2.5701,2.5707,2.5822,2.579,2.5926,2.5867,2.5807,2.5863,2.5861,2.5962,2.5976,2.6009,2.6131,2.6138,2.6068,2.6073,2.6076,2.6078,0,0,0,0,0,0,0,2.5509,2.5529,2.5725,2.5698,2.5705,2.5716,2.5734,2.5816,2.5892,2.5812,2.5815,2.5834,2.5965,2.6002,2.6014,2.6141,2.6067,2.6075,2.608,2.6083,2.6341,2.6343,0,0,0,0,0,0,2.5492,2.5521,2.572,2.5729,2.5607,2.5723,2.5742,2.5787,2.5891,2.5905,2.5835,2.5835,2.5988,2.6004,2.602,2.6124,2.6076,2.6084,2.6088,2.6339,2.6341,2.6343,0,0,0,0,0,0,2.5486,2.5509,2.5713,2.5626,2.5653,2.5729,2.5779,2.5791,2.5827,2.5908,2.5922,2.5858,2.5988,2.6008,2.6098,2.613,2.6087,2.6095,2.6336,2.634,2.6342,2.6331,0,0,0,0,0,0,2.5478,2.5507,2.5537,2.5627,2.5658,2.5787,2.5781,2.5795,2.5841,2.5843,2.5933,2.5947,2.5988,2.6086,2.6106,2.614,2.6101,2.6334,2.6338,2.6341,2.6329,2.6333,2.6337,0,0,0,0,0,2.5468,2.5527,2.5538,2.5562,2.5697,2.5789,2.5807,2.5853,2.5843,2.5876,2.5928,2.5944,2.6123,2.6094,2.6118,2.6155,2.6332,2.6337,2.6341,2.6327,2.6332,2.6337,0,0,0,0,0,0,2.5439,2.554,2.5553,2.5643,2.5707,2.5796,2.5837,2.5857,2.5925,2.5924,2.5979,2.5999,2.6086,2.6129,2.6096,2.6241,2.6228,2.6237,2.6209,2.6215,2.6219,2.6207,2.6108,0,0,0,0,0,2.5443,2.5509,2.5593,2.5664,2.5696,2.5761,2.5803,2.5833,2.5902,2.5929,2.5988,2.6055,2.6127,2.6173,2.6244,2.6335,2.6357,2.6373,2.6377,2.638,2.6387,2.6442,2.6451,2.6358,2.6358,2.6358,0,0,2.5453,2.5515,2.5553,2.566,2.5713,2.5781,2.5784,2.5855,2.5906,2.594,2.6029,2.6075,2.6154,2.6245,2.6289,2.6284,2.6418,2.6385,2.6387,2.6394,2.6448,2.6456,2.6464,2.6361,2.636,2.636,0,0,2.5504,2.5557,2.5624,2.5677,2.5758,2.5802,2.5818,2.5904,2.5936,2.6026,2.6054,2.6117,2.6238,2.6294,2.6338,2.6414,2.6432,2.6436,2.6457,2.651,2.6517,2.6524,2.6553,2.6562,2.6443,2.6443,2.6443,0,2.5505,2.5608,2.5655,2.5726,2.5773,2.5808,2.5877,2.5927,2.6027,2.6059,2.6053,2.6208,2.6264,2.637,2.6389,2.6423,2.6445,2.6426,2.6512,2.6519,2.6526,2.6555,2.6565,2.6443,2.6443,2.6443,2.6443,0,2.5607,2.5678,2.5722,2.5818,2.587,2.5939,2.5999,2.6046,2.6072,2.6117,2.621,2.6278,2.6364,2.6391,2.6417,2.6502,2.6498,2.6501,2.6489,2.6534,2.6562,2.6573,2.6443,2.6443,2.6443,2.6443,0,0,2.5644,2.5767,2.5782,2.5827,2.592,2.5977,2.6049,2.6133,2.6174,2.6242,2.6305,2.6409,2.6413,2.6464,2.6496,2.6542,2.6601,2.6541,2.6543,2.6551,2.6702,2.67,2.6712,2.6613,2.6616,2.6617,2.6696,0,2.5708,2.5837,2.5883,2.599,2.6058,2.6093,2.6156,2.6221,2.6265,2.633,2.6379,2.6453,2.6452,2.6483,2.653,2.6584,2.6632,2.6579,2.6675,2.6677,2.6655,2.6726,2.6724,2.6795,2.6707,2.6709,2.6711,0,2.58,2.5871,2.5984,2.6071,2.6101,2.6157,2.624,2.63,2.6376,2.6405,2.6462,2.6493,2.6571,2.6554,2.6665,2.6627,2.667,2.6702,2.6706,2.6718,2.6697,2.6741,2.6818,2.683,2.6728,2.6726,2.6725,0,2.5819,2.5941,2.6026,2.6063,2.6166,2.6205,2.625,2.6324,2.6373,2.6445,2.6478,2.6558,2.6602,2.6664,2.6717,2.6699,2.6823,2.681,2.6851,2.685,2.6877,2.6875,2.6963,2.6901,2.6901,2.6901,2.69,0,2.5887,2.5955,2.6036,2.6088,2.6167,2.622,2.6297,2.6345,2.641,2.6474,2.6509,2.6568,2.6632,2.67,2.6741,2.6828,2.6847,2.6874,2.6885,2.6872,2.6869,2.6901,2.6898,2.6904,2.6903,2.6902,2.6902,0,2.592,2.5977,2.6072,2.6162,2.6187,2.6241,2.6319,2.6373,2.6419,2.6499,2.6521,2.6594,2.6676,2.6734,2.6839,2.6867,2.6961,2.697,2.6936,2.6941,2.698,2.6977,2.7094,2.7113,2.7036,2.7037,2.7037,0,2.596,2.6014,2.6111,2.6156,2.6201,2.6272,2.6323,2.6378,2.6429,2.652,2.6563,2.6647,2.6718,2.6848,2.6911,2.6993,2.7005,2.7041,2.7018,2.7004,2.7008,2.7005,2.7012,2.7044,2.7045,2.7045,2.7046,0,2.6027,2.6053,2.6123,2.6204,2.6263,2.633,2.6397,2.6432,2.6499,2.6555,2.664,2.6694,2.6803,2.6887,2.6975,2.7023,2.7047,2.7053,2.7067,2.7055,2.7034,2.7048,2.6947,2.705,2.7049,2.7049,2.7049,2.7049,2.6067,2.6117,2.6194,2.6272,2.6328,2.6391,2.6446,2.65,2.6571,2.6663,2.6692,2.678,2.6857,2.6978,2.7027,2.7098,2.7096,2.7116,2.7122,2.7126,2.7127,2.7021,2.7114,2.7114,2.7114,2.7114,2.7114,0,2.6137,2.6188,2.6259,2.6353,2.6415,2.6431,2.6507,2.6558,2.6635,2.6704,2.6774,2.6872,2.6955,2.7025,2.7111,2.7155,2.7168,2.7175,2.7174,2.7185,2.7123,2.7103,2.7164,2.7164,2.7164,2.7164,2.7164,2.7163,2.6181,2.6268,2.6303,2.642,2.6471,2.6558,2.66,2.6659,2.6715,2.6823,2.6892,2.6937,2.7008,2.71,2.7177,2.7196,2.7227,2.7232,2.7254,2.7195,2.7189,2.7183,2.7165,2.7238,2.7238,2.731,2.7311,2.7311]}]]